TimeEDT,TemperatureF,Dew PointF,Humidity,Sea Level PressureIn,VisibilityMPH,Wind Direction,Wind SpeedMPH,Gust SpeedMPH,PrecipitationIn,Events,Conditions,WindDirDegrees,DateUTC
12:00 AM,50.0,48.2,94,30.11,1.8,NNW,11.5,-,0.01,Rain,Heavy Rain,330,2013-10-11 04:00:00
12:12 AM,50.0,48.2,94,30.11,2.5,NNW,10.4,19.6,0.03,Rain,Heavy Rain,340,2013-10-11 04:12:00
12:21 AM,51.8,50.0,94,30.11,3.0,Calm,Calm,-,0.05,Rain,Heavy Rain,0,2013-10-11 04:21:00
12:33 AM,51.8,50.0,94,30.11,2.5,North,6.9,-,0.07,Rain,Heavy Rain,360,2013-10-11 04:33:00
12:43 AM,51.8,50.0,94,30.10,1.2,North,4.6,-,0.09,Rain,Heavy Rain,360,2013-10-11 04:43:00
12:53 AM,51.1,50.0,96,30.11,3.0,Calm,Calm,-,0.11,Rain,Heavy Rain,0,2013-10-11 04:53:00
12:58 AM,51.8,50.0,94,30.11,3.0,Calm,Calm,-,0.01,Rain,Heavy Rain,0,2013-10-11 04:58:00
1:10 AM,51.8,50.0,94,30.10,1.8,NNE,3.5,-,0.03,Rain,Heavy Rain,20,2013-10-11 05:10:00
1:25 AM,51.8,50.0,94,30.10,2.5,NE,3.5,-,0.06,Rain,Heavy Rain,40,2013-10-11 05:25:00
1:36 AM,51.8,51.8,100,30.10,3.0,NE,4.6,-,0.09,Rain,Heavy Rain,50,2013-10-11 05:36:00
1:53 AM,52.0,51.1,97,30.09,2.5,NNE,4.6,-,0.12,Rain,Heavy Rain,30,2013-10-11 05:53:00
2:45 AM,51.8,51.8,100,30.08,1.5,North,5.8,-,0.11,Rain,Heavy Rain,350,2013-10-11 06:45:00
2:53 AM,52.0,51.1,97,30.08,1.5,North,3.5,-,0.13,Rain,Heavy Rain,360,2013-10-11 06:53:00
3:27 AM,51.8,51.8,100,30.07,2.5,North,5.8,-,0.08,Rain,Heavy Rain,10,2013-10-11 07:27:00
3:53 AM,52.0,50.0,93,30.07,2.5,North,5.8,-,0.15,Rain,Heavy Rain,10,2013-10-11 07:53:00
4:02 AM,51.8,50.0,94,30.06,5.0,North,4.6,-,0.02,Rain,Rain,10,2013-10-11 08:02:00
4:53 AM,53.1,51.1,93,30.07,8.0,Calm,Calm,-,0.15,Rain,Light Rain,0,2013-10-11 08:53:00
5:53 AM,53.1,51.1,93,30.07,10.0,NNE,3.5,-,0.14,Rain,Light Rain,30,2013-10-11 09:53:00
6:53 AM,53.1,50.0,89,30.08,6.0,North,3.5,-,0.14,Rain,Rain,10,2013-10-11 10:53:00
7:53 AM,53.1,51.1,93,30.09,10.0,Calm,Calm,-,0.14,Rain,Light Rain,0,2013-10-11 11:53:00
8:53 AM,53.1,51.1,93,30.10,6.0,Calm,Calm,-,0.13,Rain,Light Rain,0,2013-10-11 12:53:00
9:53 AM,54.0,51.1,90,30.11,10.0,Calm,Calm,-,0.12,Rain,Light Rain,0,2013-10-11 13:53:00
10:53 AM,54.0,52.0,93,30.10,10.0,NNW,4.6,-,0.12,Rain,Light Rain,330,2013-10-11 14:53:00
11:53 AM,55.9,53.1,90,30.09,10.0,Calm,Calm,-,0.12,Rain,Light Rain,0,2013-10-11 15:53:00
12:53 PM,57.9,53.1,84,30.08,10.0,Calm,Calm,-,0.11,,Overcast,0,2013-10-11 16:53:00
1:06 PM,59.0,53.6,82,30.08,10.0,Calm,Calm,-,0.02,,Overcast,0,2013-10-11 17:06:00
1:53 PM,62.1,55.0,78,30.05,10.0,NNW,3.5,-,0.11,,Overcast,340,2013-10-11 17:53:00
2:53 PM,64.9,57.0,75,30.04,10.0,ENE,5.8,-,0.10,,Mostly Cloudy,70,2013-10-11 18:53:00
3:53 PM,64.9,57.9,78,30.04,10.0,North,5.8,-,0.10,,Overcast,360,2013-10-11 19:53:00
4:53 PM,64.9,57.0,75,30.04,10.0,NNW,3.5,-,0.09,,Overcast,340,2013-10-11 20:53:00
5:53 PM,64.0,57.9,80,30.04,10.0,NNW,3.5,-,0.10,,Overcast,330,2013-10-11 21:53:00
6:53 PM,61.0,57.9,90,30.07,10.0,Calm,Calm,-,0.12,,Overcast,0,2013-10-11 22:53:00
7:53 PM,60.1,57.0,90,30.09,10.0,Calm,Calm,-,0.12,Rain,Light Rain,0,2013-10-11 23:53:00
8:53 PM,60.1,57.9,93,30.09,10.0,Calm,Calm,-,0.09,,Overcast,0,2013-10-12 00:53:00
9:53 PM,60.1,57.0,90,30.11,10.0,Calm,Calm,-,0.07,,Overcast,0,2013-10-12 01:53:00
10:02 PM,60.8,57.2,88,30.10,7.0,Calm,Calm,-,0.01,,Overcast,0,2013-10-12 02:02:00
10:53 PM,59.0,57.0,93,30.10,10.0,Calm,Calm,-,0.07,,Overcast,0,2013-10-12 02:53:00
11:53 PM,59.0,55.0,87,30.09,10.0,North,3.5,-,0.05,,Overcast,350,2013-10-12 03:53:00